Location: Newark
(49.8969°N, 3.3422°E)
Time: 15:29:59
(UTC+00:00)

Tiros 1 - Pass Details

Date: 13 May 2021
Orbit: 630 x 664 km, 48.4° (Epoch: 11 June)

Event Time Altitude Azimuth Distance (km) Brightness Sun altitude
Exits shadow 01:04:52 40° 174° (S) 966 7.6 -19.3°
Maximum altitude 01:05:25 42° 155° (SSE) 938 7.6 -19.3°
Drops below altitude 10° 01:09:54 10° 85° (E) 2,064 10.1 -19.0°
Sets 01:12:19 0° 79° (E) 2,971 11.0 -18.9°
